Temp
4 4 3 3 3 2 3 3 3 3 3 4 4 3 3 3 3 3 3 3 3 3 3 3 3 3 2 2 2 2 1 1 1 0 0 -0 -0 -0 -0 -0 -1 -1 -1
3 3 3 2 2 2 3 3 3 3 3 3 3 3 3 3 3 3 3 3 3 3 3 3 3 3 2 2 2 2 1 1 1 0 0 -0 -0 -0 -0 -1 -1 -1 -1
3 2 1 2 2 3 3 3 3 3 3 3 3 3 3 3 3 3 3 3 3 3 3 3 3 3 2 2 2 1 1 1 1 1 0 0 -0 -0 -1 -1 -1 -1 -1
3 3 1 1 1 3 2 3 3 3 3 3 3 3 3 3 3 3 3 3 3 3 3 3 3 3 2 2 2 1 1 1 1 1 0 0 -0 -1 -1 -1 -1 -1 -2
3 3 2 1 1 2 2 3 3 3 3 3 3 3 3 3 3 3 3 3 2 3 3 3 2 2 2 2 2 1 1 1 1 0 0 -0 -1 -1 -1 -1 -1 -1 -2
3 3 2 2 1 2 2 2 3 3 2 3 3 3 3 3 3 3 3 2 2 2 2 2 2 2 2 2 2 2 1 1 0 0 -0 -0 -1 -1 -1 -1 -1 -1 -2
2 2 2 1 2 2 2 2 2 3 2 3 3 3 4 4 3 3 3 3 2 2 2 2 2 2 2 2 2 2 1 1 0 -0 -0 -1 -1 -1 -1 -1 -1 -2 -2
2 2 1 2 2 2 2 2 2 2 3 3 4 4 4 4 3 3 3 3 3 2 2 2 2 2 2 2 2 2 1 1 0 -0 -1 -1 -1 -1 -2 -2 -2 -2 -2
2 2 2 1 3 3 3 3 2 2 3 3 4 4 4 4 3 3 3 3 3 3 2 2 2 2 1 1 2 1 1 1 0 -0 -1 -1 -1 -2 -2 -2 -2 -2 -2
2 2 2 2 2 3 2 1 2 3 3 3 3 3 4 3 3 3 3 3 3 2 2 2 2 2 1 1 1 1 1 1 0 -0 -1 -1 -1 -2 -2 -2 -2 -2 -2
2 2 2 2 2 2 1 2 2 2 3 3 3 3 3 3 3 3 3 3 3 2 2 2 2 2 1 1 1 1 1 0 0 -0 -0 -1 -1 -2 -2 -2 -2 -2 -2
1 1 2 2 2 2 2 2 3 2 2 3 2 2 2 2 2 2 2 2 2 2 2 2 1 1 1 1 1 1 1 0 0 -0 -1 -1 -1 -2 -3 -2 -2 -2 -3
2 1 1 1 2 2 2 2 2 2 2 2 2 2 2 2 2 2 2 2 2 1 1 1 1 1 1 1 1 1 1 0 0 -0 -1 -1 -2 -2 -2 -2 -2 -2 -3
1 1 1 1 1 1 2 1 1 1 1 1 1 2 2 2 2 2 2 2 2 1 1 1 1 1 1 1 1 1 1 0 0 -0 -1 -1 -2 -2 -2 -2 -2 -3 -2
-0 0 1 0 0 1 1 2 1 0 1 1 1 1 1 1 1 1 1 1 1 1 1 1 0 0 0 1 1 1 0 0 0 -0 -1 -1 -2 -2 -2 -2 -2 -2 -2
-1 -0 -1 -0 -0 -0 1 0 0 -0 0 1 1 0 1 1 1 0 1 1 1 1 1 1 1 0 0 -0 0 0 0 0 -0 -1 -1 -1 -1 -1 -2 -2 -2 -2 -2
-2 -1 -1 -1 -1 -1 -1 0 -1 -0 -0 -0 -0 -0 -0 -1 -1 0 -0 0 1 0 0 1 0 -0 0 -0 -0 0 -0 -0 -1 -1 -1 -1 -1 -1 -2 -2 -2 -2 -2
-2 -2 -2 -2 -2 -1 -1 -2 -1 -1 -1 -1 -1 -1 -0 -0 -1 -0 -0 -1 0 -0 1 0 -0 0 -0 -1 -1 -1 -1 -1 -1 -1 -1 -1 -2 -2 -2 -2 -2 -2 -3
-2 -3 -2 -2 -2 -2 -2 -2 -2 -2 -1 -1 -1 -1 -1 -2 -2 -2 -2 -1 -0 0 0 0 -0 -1 -1 -1 -1 -1 -1 -1 -2 -2 -2 -2 -2 -2 -2 -2 -3 -3 -3
-3 -3 -4 -3 -3 -2 -2 -2 -2 -2 -2 -2 -2 -2 -2 -2 -2 -2 -1 -2 -2 -1 -1 -1 -1 -2 -1 -1 -1 -2 -2 -2 -2 -2 -2 -2 -2 -2 -3 -3 -3 -3 -3
-5 -4 -4 -3 -3 -3 -3 -3 -2 -2 -2 -2 -2 -2 -2 -3 -3 -2 -2 -1 -2 -2 -2 -2 -1 -2 -2 -2 -2 -2 -2 -2 -2 -2 -3 -3 -3 -3 -3 -3 -4 -4 -4
-6 -5 -5 -5 -4 -4 -3 -3 -4 -3 -3 -3 -3 -3 -3 -3 -3 -3 -3 -3 -2 -3 -2 -2 -2 -3 -3 -2 -2 -2 -3 -3 -3 -3 -2 -3 -3 -3 -3 -4 -4 -4 -4
-7 -6 -6 -6 -5 -5 -5 -5 -5 -5 -5 -5 -5 -5 -4 -4 -3 -3 -3 -3 -3 -3 -3 -3 -3 -3 -3 -3 -3 -3 -3 -3 -3 -3 -3 -3 -3 -4 -5 -5 -4 -4 -4
-8 -8 -8 -7 -7 -6 -6 -6 -6 -6 -6 -5 -5 -5 -5 -4 -4 -4 -4 -4 -4 -4 -4 -3 -3 -3 -4 -3 -3 -3 -3 -4 -4 -4 -4 -4 -4 -4 -5 -5 -5 -5 -5
-8 -8 -8 -8 -8 -8 -8 -7 -7 -7 -6 -6 -6 -6 -6 -5 -5 -5 -5 -4 -4 -4 -4 -4 -4 -4 -4 -4 -5 -5 -4 -5 -4 -5 -5 -5 -5 -5 -5 -6 -6 -6 -6
-9 -9 -9 -9 -9 -9 -9 -9 -8 -8 -8 -8 -7 -7 -7 -7 -7 -7 -6 -6 -6 -7 -7 -6 -6 -6 -6 -6 -6 -6 -6 -6 -6 -6 -6 -7 -6 -6 -7 -7 -7 -7 -8
Height
3075 3077 3080 3082 3094 3104 3115 3123 3129 3134 3139 3144 3148 3152 3156 3159 3162 3164 3167 3169 3170 3171 3172 3174 3176 3176 3178 3179 3180 3181 3182 3182 3183 3182 3181 3180 3179 3178 3176 3174 3172 3169 3167
3068 3071 3069 3074 3083 3094 3105 3116 3121 3126 3132 3138 3142 3146 3150 3153 3157 3159 3163 3164 3166 3167 3168 3170 3172 3172 3174 3174 3175 3177 3178 3178 3179 3179 3178 3177 3176 3174 3173 3171 3169 3167 3164
3062 3059 3061 3064 3073 3085 3098 3107 3114 3119 3125 3130 3135 3140 3144 3148 3151 3155 3157 3159 3161 3162 3164 3166 3168 3169 3169 3170 3171 3173 3174 3174 3174 3174 3174 3173 3172 3171 3170 3168 3166 3164 3162
3050 3052 3049 3053 3064 3076 3090 3100 3105 3112 3118 3123 3128 3133 3138 3142 3145 3149 3151 3153 3156 3157 3159 3161 3163 3165 3165 3166 3167 3168 3169 3169 3170 3169 3169 3169 3168 3167 3166 3164 3162 3160 3158
3042 3045 3044 3047 3056 3070 3081 3091 3099 3106 3111 3117 3122 3127 3131 3135 3139 3143 3145 3148 3150 3152 3154 3156 3159 3160 3160 3161 3162 3163 3164 3165 3165 3164 3164 3164 3163 3162 3161 3160 3158 3156 3154
3039 3042 3042 3037 3044 3062 3074 3083 3092 3098 3103 3110 3115 3120 3124 3129 3133 3137 3140 3142 3145 3147 3149 3151 3153 3154 3155 3155 3156 3158 3159 3159 3159 3159 3159 3159 3158 3157 3156 3155 3154 3152 3150
3034 3037 3038 3037 3042 3056 3066 3075 3083 3090 3097 3103 3109 3113 3118 3123 3128 3131 3134 3136 3138 3141 3143 3145 3147 3148 3149 3150 3150 3151 3152 3153 3153 3153 3153 3153 3152 3152 3151 3150 3149 3147 3146
3026 3029 3029 3031 3036 3049 3058 3067 3076 3083 3090 3096 3102 3108 3112 3117 3121 3125 3128 3130 3132 3135 3137 3139 3140 3141 3143 3144 3145 3145 3146 3146 3147 3146 3147 3146 3146 3145 3145 3144 3143 3142 3141
3017 3020 3024 3027 3031 3038 3050 3057 3064 3075 3081 3087 3095 3100 3106 3111 3115 3118 3121 3124 3126 3129 3131 3132 3134 3135 3136 3137 3139 3139 3139 3139 3140 3140 3140 3140 3139 3139 3138 3138 3137 3136 3135
3010 3013 3017 3019 3025 3034 3033 3046 3059 3068 3076 3081 3088 3094 3099 3104 3108 3111 3114 3117 3120 3123 3125 3126 3127 3128 3129 3130 3132 3133 3133 3134 3133 3133 3133 3133 3133 3132 3132 3131 3130 3129 3128
2998 3004 3006 3013 3019 3024 3030 3042 3053 3061 3068 3074 3080 3086 3091 3095 3100 3103 3106 3110 3114 3116 3118 3120 3121 3122 3123 3123 3125 3126 3127 3126 3126 3126 3127 3127 3127 3126 3125 3123 3122 3121 3121
2995 2998 3001 3003 3012 3017 3026 3036 3045 3053 3059 3066 3071 3076 3081 3086 3091 3095 3099 3103 3106 3108 3111 3113 3113 3113 3115 3115 3116 3118 3119 3118 3119 3120 3120 3120 3120 3119 3116 3114 3114 3115 3114
2990 2992 2995 3001 3008 3014 3017 3029 3037 3045 3051 3056 3063 3068 3074 3079 3083 3087 3091 3094 3097 3100 3104 3105 3104 3104 3105 3106 3107 3109 3110 3111 3112 3113 3113 3113 3112 3109 3107 3108 3107 3107 3105
2985 2988 2993 2999 3006 3010 3016 3022 3028 3036 3041 3046 3054 3060 3066 3071 3075 3079 3082 3085 3089 3091 3094 3094 3094 3094 3095 3098 3099 3101 3102 3103 3104 3104 3105 3105 3102 3101 3100 3100 3100 3098 3097
2983 2987 2992 2997 3003 3007 3012 3016 3021 3029 3035 3042 3047 3052 3057 3062 3068 3070 3071 3074 3078 3080 3082 3080 3081 3084 3086 3089 3091 3092 3094 3094 3095 3096 3096 3095 3094 3092 3091 3089 3089 3088 3087
2987 2986 2988 2993 2997 2999 3002 3009 3014 3022 3027 3027 3036 3040 3045 3049 3055 3052 3056 3060 3063 3065 3067 3070 3072 3074 3076 3078 3080 3082 3083 3084 3085 3085 3085 3085 3084 3082 3081 3079 3077 3077 3076
2993 2993 2993 2992 2992 2994 2998 3004 3010 3016 3018 3022 3025 3028 3032 3034 3037 3040 3042 3046 3047 3052 3054 3057 3060 3058 3065 3066 3069 3071 3073 3075 3074 3073 3074 3075 3074 3072 3070 3069 3067 3065 3065
3001 3001 3001 3000 2998 2998 2998 3002 3005 3009 3011 3013 3016 3018 3020 3024 3028 3032 3033 3034 3037 3039 3045 3048 3051 3052 3053 3055 3059 3061 3063 3063 3062 3062 3062 3062 3062 3060 3058 3056 3055 3054 3053
3003 3004 3005 3003 3004 3003 3003 3005 3003 3004 3004 3006 3009 3013 3018 3019 3020 3022 3023 3024 3028 3031 3035 3037 3041 3042 3044 3047 3048 3048 3048 3048 3048 3047 3048 3048 3049 3047 3046 3044 3042 3042 3041
3006 3005 3006 3006 3006 3006 3008 3006 3005 3006 3007 3009 3011 3014 3014 3017 3018 3016 3014 3016 3019 3021 3024 3027 3030 3032 3034 3036 3036 3036 3036 3036 3036 3035 3034 3034 3034 3033 3032 3032 3029 3028 3028
3008 3007 3006 3007 3007 3007 3006 3007 3008 3008 3008 3010 3012 3013 3015 3015 3015 3013 3011 3012 3014 3016 3017 3018 3021 3021 3022 3023 3023 3022 3021 3022 3022 3023 3021 3021 3020 3018 3017 3014 3014 3014 3014
3010 3009 3008 3007 3006 3005 3004 3005 3005 3005 3006 3007 3008 3009 3010 3011 3010 3009 3009 3009 3010 3012 3012 3013 3014 3014 3013 3014 3013 3013 3011 3010 3008 3006 3007 3007 3006 3005 3003 3003 3002 3001 3000
3009 3009 3007 3006 3004 3004 3003 3002 3002 3001 3001 3002 3002 3003 3004 3005 3005 3004 3004 3004 3004 3005 3006 3007 3006 3006 3006 3005 3004 3003 3002 3000 2999 2998 2997 2997 2996 2995 2992 2992 2991 2990 2988
3010 3008 3005 3004 3002 3001 3000 2999 2999 2999 2998 2997 2997 2997 2998 2997 2998 2997 2997 2998 2998 2998 2998 2999 2999 2998 2997 2996 2995 2994 2992 2991 2990 2989 2988 2986 2986 2984 2982 2980 2978 2978 2977
3007 3005 3003 3001 2999 2998 2997 2996 2995 2995 2994 2994 2993 2992 2992 2991 2991 2991 2991 2990 2990 2990 2991 2991 2990 2989 2989 2987 2986 2985 2984 2982 2980 2979 2978 2976 2975 2974 2972 2970 2968 2967 2966
3004 3002 3000 2998 2996 2996 2994 2993 2992 2991 2990 2989 2989 2988 2987 2986 2986 2985 2984 2984 2984 2984 2984 2984 2983 2982 2981 2980 2978 2977 2976 2974 2973 2972 2971 2970 2966 2964 2963 2961 2958 2957 2957
Wind_Speed
38 39 36 49 62 58 50 43 41 37 34 32 32 31 30 31 27 24 21 18 15 13 12 12 14 13 12 10 11 12 12 13 12 12 12 11 11 12 13 14 14 14 13
41 29 37 45 63 56 47 45 44 40 36 35 34 34 32 32 29 25 22 18 16 14 13 14 15 14 13 12 13 14 15 14 14 13 13 13 13 13 14 15 15 14 14
40 31 36 55 65 53 49 47 44 42 38 39 37 36 34 33 30 27 23 20 18 16 15 15 15 15 14 14 15 16 17 16 16 15 15 15 14 14 14 15 16 15 15
39 29 32 52 61 54 48 47 43 41 42 40 38 35 34 34 31 29 24 22 19 17 16 16 16 16 15 15 16 17 18 18 18 18 17 16 15 15 15 16 16 16 15
33 27 28 46 56 51 49 47 46 46 41 40 39 35 35 34 32 29 25 23 20 18 18 17 17 17 17 16 17 17 18 19 19 19 18 17 16 16 16 16 17 17 16
32 25 28 37 43 53 51 49 48 46 43 42 40 36 36 35 32 29 26 23 21 20 18 18 19 18 18 18 18 18 19 20 20 20 20 19 19 18 18 17 17 18 16
30 28 23 42 50 53 51 50 49 47 43 43 39 37 37 35 32 28 25 23 22 21 20 20 20 19 19 19 19 19 20 20 20 21 21 21 21 20 19 19 19 19 19
34 26 22 39 51 56 52 52 53 47 45 42 38 38 38 35 33 30 28 25 23 22 21 21 21 21 21 21 21 21 21 21 20 21 23 24 22 21 21 21 20 20 21
35 36 30 41 57 57 57 53 49 46 46 43 40 40 38 35 34 33 31 28 25 24 23 22 21 22 22 21 22 22 22 21 21 23 24 25 25 24 22 23 23 23 23
37 44 43 44 53 54 47 49 44 44 44 43 41 41 39 37 36 35 32 30 28 27 26 25 23 23 24 23 24 24 24 22 24 25 26 27 27 25 24 25 26 25 25
27 33 36 48 45 43 48 43 43 42 42 44 43 42 41 40 39 37 35 33 31 31 30 27 26 25 26 26 26 27 25 27 27 26 26 26 26 25 25 27 28 28 27
26 26 29 29 43 41 46 46 46 43 42 43 45 44 44 43 42 40 38 36 35 35 32 30 30 30 30 30 30 30 30 30 29 27 26 25 25 26 28 31 31 29 28
18 21 22 39 43 38 49 51 52 47 45 43 46 47 44 43 42 41 40 39 38 37 34 33 34 34 34 35 33 34 33 32 30 27 24 24 26 30 33 31 31 31 31
16 23 23 25 39 35 43 53 55 50 48 46 44 45 44 43 42 41 41 39 39 39 37 39 39 38 39 36 36 35 35 33 30 28 27 27 30 31 32 33 33 34 34
13 24 27 26 33 38 37 34 51 58 40 45 33 36 38 41 39 43 45 42 41 39 39 45 45 41 39 37 37 36 36 35 32 31 31 31 32 33 32 35 35 37 37
21 3 6 14 16 18 24 42 43 46 48 45 33 34 40 35 45 37 34 41 43 47 49 47 45 44 42 38 39 40 39 38 36 36 35 35 36 37 36 36 38 38 38
25 24 23 10 5 11 22 29 37 27 22 28 23 28 39 28 35 36 33 37 38 43 45 43 39 47 43 40 41 43 41 39 40 40 39 39 40 41 42 41 41 42 42
15 16 19 17 16 14 7 12 15 22 21 23 20 27 40 40 34 37 41 39 44 40 39 43 40 41 40 36 42 41 40 40 41 42 42 43 44 45 46 47 46 46 45
10 10 11 14 14 12 8 8 9 1 11 10 6 16 19 18 22 28 38 40 40 36 41 39 38 34 33 38 42 42 43 44 43 45 45 46 48 50 52 52 50 49 48
14 11 9 6 5 7 8 6 7 8 7 8 9 8 5 8 19 20 23 22 23 25 26 26 28 32 39 43 45 46 46 47 47 47 47 49 50 53 53 54 55 54 50
17 15 11 9 5 3 5 3 5 6 7 10 15 12 13 14 15 14 13 18 22 22 22 24 32 35 38 43 48 50 50 49 51 51 48 49 53 55 54 56 55 52 47
17 16 15 12 11 10 8 8 10 12 13 15 13 17 16 18 16 17 19 18 18 20 24 29 31 31 32 35 36 38 39 41 43 41 43 46 47 48 53 50 44 45 44
17 16 15 15 14 13 12 11 11 11 13 14 15 17 20 17 17 18 17 21 23 20 20 19 19 19 22 24 27 30 32 29 26 29 29 28 36 38 39 43 44 45 45
18 17 17 15 14 14 14 13 13 12 12 11 13 16 17 17 22 22 21 20 22 24 26 27 27 28 29 27 28 29 27 25 26 27 28 29 30 32 33 33 35 38 41
18 18 17 17 17 16 15 15 15 14 14 14 14 13 13 15 17 22 25 27 25 26 27 26 27 27 24 24 27 28 29 28 28 28 27 27 27 28 31 32 32 33 34
20 19 19 18 17 16 16 17 16 16 15 15 15 15 15 13 13 13 14 16 17 18 20 20 20 21 21 22 21 21 21 21 21 23 23 21 22 22 23 24 25 25 25
Wind_Direction
240 251 282 239 222 214 214 215 217 217 211 209 211 211 213 211 213 218 217 217 214 218 220 229 239 244 249 244 239 243 248 252 258 267 281 293 303 313 321 324 327 328 329
242 257 275 232 204 209 210 215 214 213 210 212 210 212 214 212 215 219 218 215 216 217 222 227 237 243 247 246 244 244 247 250 256 264 275 286 296 306 314 317 319 321 321
240 251 268 219 205 213 210 211 211 210 212 211 209 213 215 213 216 218 214 216 216 216 224 227 235 242 245 247 245 245 248 249 255 261 269 279 289 298 306 309 311 314 315
239 270 279 214 208 211 207 210 208 209 212 209 211 214 214 212 214 215 214 217 220 222 225 228 235 244 245 247 250 247 250 251 253 258 264 271 280 289 297 300 304 308 310
237 262 301 219 212 203 207 208 208 210 209 208 210 214 212 211 210 212 214 218 220 223 226 228 234 242 247 251 254 252 252 253 254 257 262 268 275 282 288 295 298 302 306
238 256 269 222 203 199 202 205 208 210 207 206 209 212 210 208 206 210 213 217 222 226 229 231 235 242 248 250 250 254 254 254 255 258 262 266 270 276 282 287 290 295 299
234 248 260 215 204 200 201 204 208 211 204 205 209 209 206 204 206 210 214 218 224 229 231 233 238 243 248 250 250 253 255 256 257 258 263 264 267 271 278 281 286 290 292
235 245 258 227 210 198 202 205 207 206 208 206 207 206 205 205 207 211 215 218 223 229 233 235 238 243 248 250 252 254 257 259 261 260 260 263 266 270 274 279 282 284 286
240 232 252 217 195 206 207 210 197 203 206 205 207 208 208 208 211 216 218 221 225 231 235 239 241 245 248 252 255 255 256 259 262 261 260 262 264 267 271 276 279 281 283
240 242 243 207 212 209 222 194 196 205 207 207 208 210 211 214 217 222 224 227 229 234 238 240 243 246 250 252 255 255 256 259 261 262 262 263 265 268 270 272 275 278 279
234 227 232 215 226 229 207 196 202 206 210 210 211 213 215 218 222 225 228 231 234 236 240 242 243 246 248 250 252 254 252 253 261 265 268 267 266 267 268 269 272 275 280
237 230 214 216 207 215 193 205 204 207 213 215 215 216 217 220 225 229 231 234 236 238 241 243 243 244 246 248 250 252 251 254 263 267 269 269 265 263 263 263 269 276 278
234 239 224 205 201 212 210 209 203 209 214 215 220 219 220 223 228 231 234 235 238 241 242 245 246 245 247 249 251 254 255 255 261 267 268 267 262 258 262 267 270 272 274
244 200 210 214 211 217 216 211 209 213 218 217 223 223 223 228 231 233 238 241 242 244 244 244 245 246 248 250 253 256 257 258 259 262 264 265 265 266 268 269 270 272 272
168 214 224 210 213 224 220 228 226 210 217 222 229 224 226 231 237 242 240 242 241 244 251 247 243 246 250 252 254 256 256 257 259 261 262 263 266 267 268 268 269 269 273
40 36 168 202 208 205 216 227 220 222 229 220 229 230 233 227 236 238 240 240 239 238 244 247 250 247 246 248 250 252 252 254 256 257 259 261 264 267 269 269 271 273 274
42 50 49 68 210 201 210 208 224 223 219 212 234 239 231 259 245 226 228 239 238 240 240 249 260 246 244 248 251 254 255 256 256 257 260 262 264 266 268 269 270 272 275
18 17 38 51 51 46 235 240 233 227 229 237 259 262 258 258 244 236 244 248 241 243 248 252 257 250 253 248 253 256 257 257 257 257 257 259 261 264 266 268 269 271 273
38 24 44 34 30 38 73 85 74 191 240 241 312 238 234 230 235 242 242 244 236 242 250 248 248 249 253 254 255 254 254 253 252 252 254 256 258 261 264 266 267 270 271
24 34 33 40 35 49 62 49 48 59 14 329 331 332 317 280 247 234 232 230 235 232 228 235 247 256 254 254 257 259 259 257 255 253 253 255 258 260 262 265 266 268 270
11 9 8 0 342 307 244 275 262 261 264 271 287 277 279 284 288 291 282 264 256 254 254 250 243 245 248 251 253 252 257 260 257 257 255 256 258 260 260 260 262 265 269
355 355 358 355 348 340 316 284 251 255 261 261 266 262 273 277 276 274 276 276 270 273 269 263 262 264 268 270 272 271 268 264 259 255 260 264 266 267 268 266 266 267 270
346 344 342 341 342 341 337 325 314 295 274 272 266 267 261 266 277 273 277 276 266 262 273 277 283 275 279 281 281 281 280 276 273 273 277 288 282 282 270 268 269 268 268
348 341 335 334 331 326 324 324 322 318 310 298 285 274 270 270 267 276 276 275 274 276 272 272 280 274 273 275 280 283 285 285 287 286 286 287 288 289 286 282 279 277 277
337 337 339 337 330 326 322 317 313 312 312 312 307 300 290 281 277 273 276 277 281 282 282 279 278 277 276 283 287 287 285 288 288 286 286 284 283 282 284 282 281 280 282
332 324 322 323 327 329 326 320 317 312 309 307 308 310 310 307 301 296 291 287 286 283 282 284 286 287 287 286 284 285 289 294 296 292 292 291 290 290 291 291 291 292 294